Location: Unspecified
(43.8044°N, 11.0278°E)
Time: 14:04:31
(UTC+02:00)

Resurs 1-4 Rocket - Visible Passes

Search period start: 23 August 2017 00:00
Search period end: 02 September 2017 00:00
Orbit: 799 x 815 km, 98.5° (Epoch: 22 August)

Date Brightness Start Highest point End Pass type
(mag) Time Alt. Az. Time Alt. Az. Time Alt. Az.
23 Aug 2.1 03:30:39 10° NNE 03:35:55 73° ESE 03:36:24 68° SE visible
23 Aug 3.8 05:11:53 10° NNW 05:15:10 17° WNW 05:17:28 13° W visible
24 Aug 2.8 03:06:15 10° NNE 03:11:17 44° E 03:11:26 43° ESE visible
24 Aug 3.3 04:46:35 10° N 04:50:53 26° WNW 04:52:31 22° W visible
25 Aug 3.6 02:42:09 10° NE 02:46:29 27° E 02:46:29 27° E visible
25 Aug 2.6 04:21:36 10° N 04:26:31 41° WNW 04:27:34 37° W visible
26 Aug 4.3 02:18:30 10° NE 02:21:32 16° E 02:21:32 16° E visible
26 Aug 2.0 03:56:49 10° N 04:02:03 67° WNW 04:02:36 62° WSW visible
26 Aug 4.2 05:40:22 10° NW 05:40:54 10° NW 05:41:25 10° WNW visible
27 Aug 2.0 03:32:13 10° NNE 03:37:30 75° ESE 03:37:39 75° ESE visible
27 Aug 3.8 05:13:33 10° NNW 05:16:43 16° WNW 05:18:43 13° W visible
28 Aug 2.8 03:07:48 10° NNE 03:12:41 45° E 03:12:41 45° E visible
28 Aug 3.3 04:48:11 10° N 04:52:26 25° WNW 04:53:46 23° W visible
29 Aug 3.7 02:43:40 10° NE 02:47:44 27° E 02:47:44 27° E visible
29 Aug 2.6 04:23:12 10° N 04:28:05 40° WNW 04:28:48 38° W visible
30 Aug 4.3 02:19:58 10° NE 02:22:46 17° E 02:22:46 17° E visible
30 Aug 2.0 03:58:24 10° N 04:03:37 65° WNW 04:03:50 64° W visible
31 Aug 2.1 03:33:47 10° NNE 03:38:53 77° ENE 03:38:53 77° ENE visible
31 Aug 3.8 05:15:11 10° NNW 05:18:16 16° WNW 05:19:57 14° W visible
01 Sep 2.9 03:09:21 10° NNE 03:13:55 46° E 03:13:55 46° E visible
01 Sep 3.3 04:49:48 10° N 04:54:00 25° WNW 04:55:00 23° W visible
